Temp
68 68 69 69 69 69 70 70 71 71 71 71 71 70 71 71 71 71 71 71 71 70 69 68 68 67 66 65 64 65 73 74
62 64 65 67 69 68 68 69 69 69 69 69 68 69 70 70 70 71 71 70 70 69 68 67 66 66 65 64 63 65 73 74
62 62 65 67 66 69 69 69 68 68 69 68 68 74 74 74 70 69 69 69 68 68 67 65 65 64 64 63 65 71 72 73
59 61 64 66 67 69 68 69 71 71 70 68 68 70 72 73 70 68 68 67 67 66 65 65 68 70 69 66 70 69 70 71
61 62 63 64 66 64 65 69 71 69 68 69 68 71 71 71 71 71 70 67 69 69 68 68 65 68 67 66 67 68 70 71
60 62 62 64 64 65 67 68 68 67 70 69 67 69 68 68 70 68 68 68 65 64 66 64 65 65 65 64 64 67 68 69
60 61 62 67 66 66 66 65 68 70 70 70 70 69 66 66 66 65 65 66 67 66 66 66 65 64 64 64 64 63 64 67
65 64 67 68 68 66 67 68 68 69 69 69 68 66 65 66 65 65 66 67 67 67 66 66 65 65 63 63 63 64 64 64
66 67 68 67 67 68 69 69 68 67 66 65 66 66 64 65 65 66 66 65 64 64 62 64 64 64 62 62 64 63 64 63
67 69 67 66 67 68 68 66 67 65 65 66 67 66 65 64 65 65 62 58 60 59 63 63 63 64 62 62 63 63 62 62
67 68 67 66 66 66 66 68 67 68 65 64 64 65 64 64 65 62 58 59 60 63 62 63 62 62 63 62 62 62 61 63
68 68 67 66 66 66 66 65 66 66 64 65 65 66 64 65 64 61 61 63 62 62 61 61 61 61 62 61 60 61 61 62
68 67 66 66 66 63 64 62 63 62 62 63 64 66 65 64 64 62 63 62 61 60 59 59 59 59 60 59 58 57 57 60
68 68 68 67 68 66 67 64 63 64 62 62 63 64 64 63 63 62 62 62 59 59 59 59 59 58 58 56 55 55 56 57
68 69 68 68 68 67 64 63 62 60 60 61 62 63 62 63 62 62 61 61 60 59 59 59 57 56 55 52 52 51 53 57
68 68 67 67 66 66 64 64 63 62 61 62 63 62 59 59 62 61 60 60 58 59 59 57 55 55 54 54 54 54 50 50
66 67 66 66 65 66 64 63 65 60 59 60 61 59 57 59 60 59 59 60 58 57 55 55 55 54 54 55 53 53 52 49
65 66 66 66 65 65 63 62 61 60 60 60 60 60 60 59 59 59 58 57 56 51 47 50 50 47 54 53 52 51 51 49
64 66 66 65 64 63 62 62 62 58 60 59 55 57 58 57 57 55 53 51 49 46 53 50 47 53 52 53 53 53 53 51
65 66 66 65 64 63 62 63 62 62 59 58 57 57 57 56 56 51 50 50 52 50 50 49 49 50 51 51 53 52 52 51
MSLP
1016.77 1017.69 1018.39 1019.07 1019.25 1019.90 1019.85 1019.51 1019.87 1020.45 1021.45 1021.65 1022.06 1022.34 1022.37 1022.93 1023.33 1023.45 1023.77 1024.00 1024.13 1024.28 1024.52 1025.09 1025.14 1025.23 1025.53 1025.62 1025.48 1025.46 1025.21 1025.14
1017.85 1018.44 1018.94 1019.67 1019.86 1019.98 1020.79 1019.95 1020.16 1020.89 1021.70 1022.09 1022.44 1022.70 1022.83 1023.23 1023.61 1023.85 1024.06 1024.16 1024.47 1024.78 1025.01 1025.22 1025.32 1025.53 1025.85 1025.76 1025.77 1025.81 1025.71 1025.50
1018.51 1019.38 1019.11 1020.16 1019.49 1020.06 1020.78 1020.82 1020.54 1021.08 1021.96 1022.33 1022.67 1022.86 1023.14 1023.54 1023.96 1024.27 1024.44 1024.66 1024.91 1025.26 1025.28 1025.52 1025.77 1025.87 1026.07 1026.08 1025.84 1025.89 1025.69 1025.88
1018.86 1019.61 1019.53 1019.63 1020.34 1020.46 1020.90 1021.23 1021.06 1021.57 1022.19 1022.65 1023.02 1023.28 1023.46 1023.86 1024.27 1024.52 1024.89 1025.01 1025.41 1025.71 1025.84 1025.95 1025.81 1026.16 1026.31 1026.42 1026.42 1026.53 1026.15 1026.02
1020.28 1019.74 1020.04 1020.26 1020.92 1021.27 1021.55 1021.60 1021.83 1021.97 1022.39 1022.61 1023.32 1023.35 1023.80 1024.12 1024.45 1024.75 1025.07 1025.45 1025.70 1025.81 1025.90 1026.35 1026.32 1026.28 1026.48 1026.72 1027.14 1026.56 1026.45 1026.28
1020.06 1019.97 1020.03 1020.24 1021.17 1021.67 1021.71 1021.88 1022.11 1022.28 1022.43 1023.04 1023.34 1023.50 1024.10 1024.36 1024.43 1024.97 1025.27 1025.56 1025.91 1026.20 1026.25 1026.72 1026.92 1027.01 1026.89 1026.99 1027.00 1026.86 1026.75 1026.78
1020.29 1020.22 1020.34 1020.47 1021.00 1021.30 1021.53 1021.68 1021.95 1022.31 1022.69 1023.05 1023.22 1023.52 1024.10 1024.41 1024.84 1025.37 1025.62 1025.85 1025.91 1026.12 1026.40 1026.74 1026.95 1027.19 1027.22 1027.07 1027.21 1027.20 1027.23 1026.99
1020.14 1020.64 1020.58 1020.73 1020.94 1021.45 1021.76 1021.97 1021.98 1022.30 1022.82 1022.99 1023.30 1023.66 1024.21 1024.47 1025.16 1025.45 1025.64 1025.76 1025.90 1025.91 1026.46 1026.58 1027.06 1027.10 1027.38 1027.65 1027.75 1027.31 1027.15 1027.25
1020.17 1020.47 1020.56 1020.78 1021.16 1021.42 1021.56 1021.85 1022.19 1022.33 1022.45 1023.01 1023.31 1023.61 1024.12 1024.49 1024.97 1025.20 1025.53 1025.98 1026.18 1026.52 1026.84 1026.92 1027.17 1027.35 1027.60 1027.68 1027.66 1027.57 1027.39 1027.41
1020.17 1020.31 1020.50 1020.80 1021.00 1021.28 1021.52 1021.74 1022.07 1022.33 1022.67 1022.91 1023.22 1023.61 1024.04 1024.47 1024.83 1025.06 1025.55 1026.15 1026.27 1026.58 1026.80 1026.97 1027.32 1027.06 1027.33 1027.59 1027.67 1027.77 1027.91 1027.86
1019.83 1020.19 1020.47 1020.84 1021.13 1021.30 1021.44 1021.62 1021.73 1022.21 1022.62 1022.98 1023.32 1023.58 1023.89 1024.16 1024.55 1025.17 1025.79 1026.18 1026.20 1026.43 1026.90 1027.12 1027.12 1027.23 1027.39 1027.61 1028.04 1027.98 1028.01 1027.86
1019.55 1019.87 1020.24 1020.47 1020.93 1021.20 1021.35 1021.71 1021.91 1022.15 1022.56 1022.87 1023.07 1023.24 1023.78 1023.98 1024.47 1025.16 1025.60 1025.74 1026.11 1026.53 1026.72 1027.32 1027.13 1027.14 1027.55 1027.96 1028.43 1028.46 1028.40 1028.20
1019.02 1019.34 1019.71 1020.14 1020.59 1020.98 1021.21 1021.42 1021.84 1022.14 1022.59 1022.97 1023.08 1022.94 1023.46 1023.80 1024.22 1024.80 1025.18 1025.52 1025.86 1026.59 1026.89 1027.01 1027.14 1027.44 1027.74 1028.03 1028.22 1028.49 1028.47 1028.26
1018.28 1018.71 1019.27 1019.70 1020.02 1020.22 1020.55 1021.05 1021.56 1021.92 1022.57 1022.66 1023.01 1023.21 1023.32 1023.63 1024.05 1024.52 1025.14 1025.55 1026.22 1026.67 1026.59 1026.78 1027.21 1027.65 1027.66 1027.98 1027.36 1027.72 1027.91 1028.03
1017.27 1017.75 1018.35 1019.11 1019.52 1019.96 1020.43 1021.10 1021.62 1022.09 1022.24 1022.61 1022.87 1023.16 1023.30 1023.48 1024.11 1024.64 1025.15 1025.46 1025.91 1026.47 1026.44 1026.67 1027.17 1027.86 1028.07 1027.71 1027.19 1026.92 1027.25 1027.37
1016.69 1017.31 1017.90 1018.56 1019.15 1019.50 1019.69 1020.08 1020.61 1021.17 1021.71 1022.25 1022.40 1022.93 1023.28 1023.54 1024.07 1024.61 1025.06 1025.47 1025.83 1026.12 1026.52 1026.98 1027.14 1027.55 1027.85 1027.82 1027.72 1027.63 1027.21 1026.59
1015.95 1016.73 1017.33 1017.93 1018.58 1018.97 1019.43 1019.84 1020.29 1021.04 1021.62 1021.97 1022.42 1022.93 1023.20 1023.40 1023.79 1024.40 1024.92 1025.25 1025.64 1026.11 1026.73 1026.98 1026.87 1027.56 1027.51 1027.48 1027.45 1027.58 1027.63 1027.32
1015.31 1015.89 1016.60 1017.31 1017.98 1018.44 1018.92 1019.42 1019.99 1020.52 1021.05 1021.50 1022.03 1022.47 1022.78 1023.19 1023.72 1024.20 1024.61 1025.00 1025.72 1026.50 1027.29 1027.50 1027.21 1027.03 1027.00 1027.14 1027.00 1026.96 1026.83 1026.94
1014.66 1015.24 1015.75 1016.52 1017.33 1017.92 1018.27 1018.64 1019.40 1019.80 1020.40 1020.88 1021.57 1022.01 1022.54 1022.93 1023.38 1023.93 1024.41 1025.20 1025.95 1026.53 1026.32 1026.88 1026.91 1026.77 1026.70 1026.84 1027.05 1027.01 1027.05 1027.00
1013.95 1014.45 1015.05 1015.71 1016.35 1016.88 1017.40 1017.97 1018.79 1019.34 1019.98 1020.52 1021.07 1021.52 1021.95 1022.51 1022.98 1023.81 1024.14 1024.76 1025.09 1025.99 1026.27 1026.48 1026.57 1026.56 1026.66 1026.76 1026.80 1026.95 1027.10 1027.20
Wind_Speed
12 13 14 16 14 11 12 19 19 18 15 16 15 15 17 16 16 17 16 17 18 18 19 17 16 17 15 13 12 11 8 7
14 15 15 13 7 13 9 17 18 17 15 15 13 13 14 14 14 14 16 17 18 18 17 17 17 16 14 14 12 9 8 7
18 14 16 12 9 11 11 14 16 16 14 13 11 9 12 13 12 14 16 16 16 17 18 18 16 16 15 14 10 6 6 5
11 8 11 11 7 9 9 8 8 9 9 8 5 8 8 9 11 14 15 17 16 17 17 15 11 7 6 9 6 6 5 5
15 10 11 11 6 4 2 4 6 7 9 8 7 7 7 6 6 7 8 11 7 10 9 7 9 7 7 6 5 5 4 4
7 8 7 9 6 5 5 5 5 5 7 8 6 5 6 6 5 6 7 6 8 7 6 9 9 9 9 7 7 6 4 3
7 11 12 10 6 5 5 5 6 7 7 7 6 6 6 6 6 5 6 6 7 7 7 7 8 8 7 9 7 6 5 3
14 10 9 6 6 6 6 6 7 7 5 6 7 5 6 6 6 6 6 6 6 7 6 7 6 6 8 6 6 5 7 6
16 14 9 6 8 8 6 5 5 5 5 5 5 6 7 7 7 7 7 6 9 7 7 6 6 6 6 5 4 6 6 6
16 12 10 8 6 6 6 6 5 3 4 5 8 7 10 8 7 7 7 5 5 5 5 5 4 4 4 4 4 4 5 5
15 13 11 11 9 6 6 6 5 5 4 4 8 9 9 9 8 7 7 5 5 6 4 3 4 4 4 3 2 3 3 3
13 12 11 10 7 5 4 4 4 4 4 4 7 7 11 10 8 9 8 7 6 5 5 4 3 4 2 1 2 3 3 2
15 14 12 9 7 7 5 6 5 4 3 7 8 8 10 10 8 9 8 8 7 6 5 5 3 3 0 4 3 5 5 3
17 16 14 11 9 7 4 5 4 5 5 5 6 8 10 9 9 9 9 7 7 7 5 3 3 3 2 2 2 4 6 7
19 18 15 13 12 8 4 5 2 4 5 5 7 9 9 9 9 8 9 7 7 6 5 5 4 4 5 2 2 3 3 3
17 15 14 13 14 12 13 9 9 7 6 6 7 9 8 7 10 9 8 6 8 6 5 4 3 3 3 4 4 4 4 5
15 15 15 14 15 13 10 9 7 5 5 8 8 7 7 9 11 10 9 7 7 9 8 6 5 4 4 3 3 4 5 6
14 16 14 14 14 15 15 14 11 8 9 8 8 7 7 10 11 10 10 10 10 6 5 7 5 4 4 4 4 4 4 5
14 16 16 16 16 15 16 15 13 10 10 8 9 8 8 11 13 11 9 9 8 6 9 8 5 5 5 4 4 4 4 6
16 17 16 16 16 15 13 14 9 9 9 7 7 8 9 13 12 10 12 11 11 7 4 5 4 5 7 5 3 4 4 5
Wind_Direction
137 119 108 87 92 105 112 118 115 114 115 115 115 116 116 116 116 112 111 108 107 103 97 98 101 91 84 75 72 68 75 79
86 95 108 110 103 90 102 105 103 103 113 111 111 111 110 108 112 120 121 110 104 106 107 102 96 92 84 74 71 72 71 75
114 128 109 145 138 111 111 95 110 110 119 118 121 125 120 122 108 114 111 108 105 103 99 93 89 83 75 68 63 60 70 64
78 124 119 105 88 133 111 119 121 128 128 121 106 117 115 121 110 104 111 105 101 101 96 95 88 85 79 66 60 59 66 56
144 140 131 118 116 56 85 155 142 127 133 124 131 128 129 127 127 125 118 115 117 111 99 85 92 92 79 68 72 63 44 42
137 130 118 107 122 172 139 150 136 139 138 144 142 136 142 143 133 124 135 133 117 106 100 100 95 89 90 93 67 51 38 24
149 153 150 145 167 161 157 144 155 156 156 159 157 155 155 141 135 137 135 129 120 114 112 108 97 90 81 67 64 65 50 38
156 169 186 175 169 176 176 173 159 158 166 175 167 156 152 142 145 148 141 140 132 125 122 108 94 84 73 72 59 58 55 50
177 188 209 211 191 188 177 168 172 176 174 176 188 170 157 158 156 152 146 139 126 122 109 102 101 100 101 83 64 59 56 55
187 203 212 217 206 194 188 170 177 172 185 190 212 188 169 163 163 162 145 135 134 121 121 113 121 110 108 73 64 76 69 68
198 208 205 205 204 201 188 185 185 192 159 189 195 185 172 170 170 151 143 145 135 141 134 153 132 110 98 79 89 150 165 144
203 206 207 197 190 186 181 187 194 174 180 202 188 176 173 167 157 154 158 155 149 152 140 108 107 89 67 31 300 232 214 200
212 209 201 185 182 184 190 196 198 185 194 210 201 176 171 168 161 161 167 169 156 145 128 129 118 83 330 242 242 221 229 235
209 210 202 196 196 188 187 177 195 194 195 195 201 192 175 171 168 169 170 149 147 161 166 126 91 150 220 257 276 193 220 226
207 208 200 199 197 178 126 141 133 186 191 197 204 195 174 171 172 166 163 165 162 165 140 142 159 181 223 273 257 284 304 190
206 204 197 196 188 193 189 197 198 206 188 192 190 192 173 154 168 164 161 156 159 151 141 143 143 200 202 221 240 283 289 285
195 196 196 193 193 199 196 202 204 165 169 189 189 181 166 164 163 159 164 164 147 148 148 157 150 204 224 207 222 234 241 270
190 193 198 195 194 195 198 206 197 176 184 186 189 182 177 172 166 168 163 153 153 136 94 197 189 183 191 202 229 253 276 273
193 196 200 195 194 194 197 205 204 183 186 192 172 177 183 177 171 167 156 142 142 156 177 188 191 204 183 203 218 243 264 267
194 200 206 200 198 201 200 205 202 196 189 194 191 192 187 170 170 161 155 159 162 171 178 201 176 186 194 199 233 255 260 267